Weather History for Cross City, FL

Change the Weather History Date:

Sunday, March 23, 2014

  Actual Average Record
Temperature  
Mean Temperature 65 °F 64 °F  
Max Temperature 75 °F 77 °F 86 °F (2007)
Min Temperature 55 °F 50 °F 34 °F (2004)
Degree Days  
Heating Degree Days 0 3  
Month to date heating degree days 135 112  
Since 1 July heating degree days 1130 1232  
Cooling Degree Days 0 2  
Month to date cooling degree days 10 28  
Year to date cooling degree days 45 55  
Growing Degree Days 15 (Base 50)    
Moisture  
Dew Point 62 °F    
Average Humidity 87    
Maximum Humidity 100    
Minimum Humidity 73    
Precipitation  
Precipitation 0.00 in 0.14 in 0.34 in (2013)
Month to date precipitation 4.96 3.13  
Year to date precipitation 15.11 10.44  
Sea Level Pressure  
Sea Level Pressure 30.01 in    
Wind  
Wind Speed 6 mph (West)    
Max Wind Speed 14 mph    
Max Gust Speed 18 mph    
T = Trace of Precipitation, MM = Missing Value Source: NWS Daily Summary

Daily Weather History Graph

Daily Weather History Graph

Search for Another Location

Airport:

Trip Planner

Search our weather history database for the weather conditions in past years. The results will help you decide how hot, cold, wet, or windy it might be!

Date:

Astronomy

Mar. 23, 2014 Rise Set
Actual Time 7:32 AM EDT 7:45 PM EDT
Civil Twilight 7:08 AM EDT 8:09 PM EDT
Nautical Twilight 6:41 AM EDT 8:37 PM EDT
Astronomical Twilight 6:13 AM EDT 9:05 PM EDT
Moon 1:40 AM EDT (3/23) 12:34 PM EDT (3/23)
Length of Visible Light 13h 00m
Length of Day
12h 12m
Waning Gibbous, 55% of the Moon is Illuminated
Mar 23
Waning Gibbous
Mar 23
Last Quarter
Mar 30
New
Apr 7
First Quarter
Apr 15
Full

Hourly Weather History & Observations

Time (EDT) Temp. Dew Point Humidity Pressure Visibility Wind Dir Wind Speed Gust Speed Precip Events Conditions
12:53 AM 61.0 °F 57.9 °F 90% 30.04 in - West 4.6 mph - N/A   Unknown
1:53 AM 59.0 °F 55.9 °F 90% 30.04 in - Calm Calm - N/A   Unknown
2:53 AM 57.0 °F 55.0 °F 93% 30.03 in - Calm Calm - N/A   Unknown
3:53 AM 55.9 °F 54.0 °F 93% 30.00 in - North - - N/A   Unknown
4:53 AM 57.0 °F 55.0 °F 93% 30.00 in - Calm Calm - N/A   Unknown
5:53 AM 57.9 °F 57.0 °F 97% 30.01 in - Calm Calm - N/A   Unknown
6:53 AM 57.0 °F 55.9 °F 96% 30.01 in - Calm Calm - N/A   Unknown
7:53 AM 55.0 °F 55.0 °F 100% 30.02 in - Calm Calm - N/A   Unknown
8:53 AM 61.0 °F 60.1 °F 97% 30.03 in - Calm Calm - N/A   Unknown
9:53 AM 68.0 °F 64.0 °F 87% 30.04 in - WSW 4.6 mph - N/A   Unknown
10:53 AM 68.0 °F 64.9 °F 90% 30.04 in - WSW 4.6 mph - N/A   Unknown
11:53 AM 72.0 °F 66.0 °F 81% 30.04 in - SW 6.9 mph - N/A   Unknown
12:53 PM 73.9 °F 66.0 °F 76% 30.04 in - West 11.5 mph - N/A   Unknown
1:53 PM 75.0 °F 66.0 °F 73% 30.02 in - West 11.5 mph - N/A   Unknown
2:53 PM 73.0 °F 66.0 °F 79% 30.00 in - West 8.1 mph - N/A   Unknown
3:53 PM 73.9 °F 66.0 °F 76% 29.97 in - West 9.2 mph - N/A   Unknown
4:53 PM 73.0 °F 64.9 °F 76% 29.97 in - West 11.5 mph - N/A   Unknown
5:53 PM 73.9 °F 64.9 °F 73% 29.96 in - West 10.4 mph - N/A   Unknown
6:53 PM 72.0 °F 66.0 °F 81% 29.95 in - WSW 8.1 mph - N/A   Unknown
7:53 PM 69.1 °F 64.9 °F 87% 29.98 in - WSW 9.2 mph - N/A   Unknown
8:53 PM 68.0 °F 64.9 °F 90% 30.00 in - West 8.1 mph - N/A   Unknown
9:53 PM 68.0 °F 64.0 °F 87% 30.02 in - WNW 8.1 mph - N/A   Unknown
10:53 PM 66.9 °F 64.0 °F 90% 30.03 in - NNW 4.6 mph - N/A   Unknown
11:53 PM 66.0 °F 64.0 °F 93% 30.03 in - NW 3.5 mph - N/A   Unknown